Weather History for KTYQ - October, 2013

Change the Weather History Date:

Friday, October 4, 2013

  Actual Average (KEYE) Record (KEYE)
Temperature  
Mean Temperature 74 °F 59 °F  
Max Temperature 82 °F 69 °F 86 °F (2007)
Min Temperature 66 °F 49 °F 39 °F (1996)
Degree Days  
Heating Degree Days 0 7  
Month to date heating degree days 26  
Since 1 July heating degree days 87  
Cooling Degree Days 9 1  
Month to date cooling degree days 4  
Year to date cooling degree days 1047  
Growing Degree Days 24 (Base 50)    
Moisture  
Dew Point 65 °F    
Average Humidity 75    
Maximum Humidity 88    
Minimum Humidity 57    
Precipitation  
Precipitation 0.00 in 0.10 in 0.61 in (2002)
Month to date precipitation 0.42  
Year to date precipitation 31.32  
Sea Level Pressure  
Sea Level Pressure 30.04 in    
Wind  
Wind Speed 5 mph (SSW)    
Max Wind Speed 13 mph    
Max Gust Speed 17 mph    
Visibility 10 miles    
Events      
T = Trace of Precipitation, MM = Missing Value Source: NWS Daily Summary

Daily Weather History Graph

Daily Weather History Graph

Search for Another Location

Airport or City:

Trip Planner

Search our weather history database for the weather conditions in past years. The results will help you decide how hot, cold, wet, or windy it might be!

Date:

Astronomy

Oct. 04, 2013 Rise Set
Actual Time 7:44 AM EDT 7:22 PM EDT
Civil Twilight 7:17 AM EDT 7:49 PM EDT
Nautical Twilight 6:46 AM EDT 8:20 PM EDT
Astronomical Twilight 6:14 AM EDT 8:51 PM EDT
Moon 7:19 AM EDT 7:04 PM EDT
Length of Visible Light 12h 31m
Length of Day
11h 37m
Waning Crescent, 0% of the Moon is Illuminated
Oct 4
Waning Crescent
Oct 4
New
Oct 11
First Quarter
Oct 18
Full
Oct 26
Last Quarter

Hourly Weather History & Observations

Time (EDT) Temp. Heat Index Dew Point Humidity Pressure Visibility Wind Dir Wind Speed Gust Speed Precip Events Conditions
12:35 AM 71.1 °F - 63.5 °F 77% 30.03 in 10.0 mi SSW 6.9 mph - N/A   Scattered Clouds
12:55 AM 70.9 °F - 63.5 °F 77% 30.02 in 10.0 mi SSW 6.9 mph - N/A   Scattered Clouds
1:15 AM 70.7 °F - 63.7 °F 78% 30.02 in 10.0 mi SSW 5.8 mph - N/A   Scattered Clouds
1:35 AM 70.2 °F - 63.7 °F 80% 30.03 in 10.0 mi SW 5.8 mph - N/A   Mostly Cloudy
1:55 AM 69.8 °F - 63.7 °F 81% 30.03 in 10.0 mi SSW 4.6 mph - N/A   Mostly Cloudy
2:15 AM 69.1 °F - 63.5 °F 82% 30.03 in 10.0 mi SSW 4.6 mph - N/A   Scattered Clouds
2:35 AM 68.4 °F - 63.5 °F 84% 30.03 in 10.0 mi SSW 3.5 mph - N/A   Scattered Clouds
2:55 AM 68.5 °F - 63.5 °F 84% 30.03 in 10.0 mi SSW 4.6 mph - N/A   Mostly Cloudy
3:15 AM 68.0 °F - 63.5 °F 85% 30.03 in 10.0 mi South 3.5 mph - N/A   Mostly Cloudy
3:35 AM 68.0 °F - 63.5 °F 85% 30.03 in 10.0 mi South 3.5 mph - N/A   Scattered Clouds
3:55 AM 67.3 °F - 63.1 °F 87% 30.03 in 10.0 mi Calm Calm - N/A   Scattered Clouds
4:15 AM 67.3 °F - 63.3 °F 87% 30.03 in 7.0 mi Calm Calm - N/A   Overcast
4:35 AM 66.4 °F - 62.6 °F 88% 30.03 in 7.0 mi Calm Calm - N/A   Mostly Cloudy
4:55 AM 67.1 °F - 63.5 °F 88% 30.03 in 7.0 mi Calm Calm - N/A   Overcast
5:15 AM 67.1 °F - 63.3 °F 88% 30.03 in 7.0 mi South 3.5 mph - N/A   Mostly Cloudy
5:35 AM 67.6 °F - 63.5 °F 87% 30.03 in 10.0 mi South 3.5 mph - N/A   Overcast
5:55 AM 67.6 °F - 63.1 °F 85% 30.03 in 10.0 mi Calm Calm - N/A   Overcast
6:15 AM 67.5 °F - 63.0 °F 85% 30.04 in 10.0 mi South 3.5 mph - N/A   Mostly Cloudy
6:35 AM 67.5 °F - 63.1 °F 86% 30.04 in 10.0 mi Calm Calm - N/A   Mostly Cloudy
6:55 AM 67.5 °F - 63.3 °F 87% 30.05 in 10.0 mi South 3.5 mph - N/A   Mostly Cloudy
7:15 AM 67.5 °F - 63.5 °F 87% 30.05 in 7.0 mi Calm Calm - N/A   Scattered Clouds
7:35 AM 67.3 °F - 63.1 °F 87% 30.06 in 7.0 mi Calm Calm - N/A   Mostly Cloudy
7:55 AM 67.5 °F - 63.5 °F 87% 30.06 in 7.0 mi South 4.6 mph - N/A   Scattered Clouds
8:35 AM 68.2 °F - 63.7 °F 85% 30.06 in 7.0 mi South 3.5 mph - N/A   Clear
8:55 AM 68.4 °F - 63.7 °F 85% 30.06 in 10.0 mi SSW 5.8 mph - N/A   Clear
9:15 AM 69.8 °F - 64.4 °F 83% 30.06 in 10.0 mi SSW 5.8 mph - N/A   Clear
9:35 AM 72.1 °F - 64.2 °F 76% 30.06 in 10.0 mi SSW 8.1 mph - N/A   Scattered Clouds
9:55 AM 73.2 °F - 64.6 °F 74% 30.06 in 10.0 mi SW 10.4 mph - N/A   Mostly Cloudy
10:15 AM 73.8 °F - 64.6 °F 73% 30.07 in 10.0 mi SSW 9.2 mph 16.1 mph N/A   Mostly Cloudy
10:35 AM 73.6 °F - 64.6 °F 73% 30.07 in 10.0 mi SSW 8.1 mph - N/A   Scattered Clouds
10:55 AM 73.0 °F - 64.4 °F 74% 30.08 in 10.0 mi SSW 6.9 mph - N/A   Scattered Clouds
11:15 AM 74.7 °F - 65.3 °F 73% 30.08 in 10.0 mi SSW 9.2 mph 16.1 mph N/A   Mostly Cloudy
11:35 AM 74.3 °F - 65.3 °F 73% 30.08 in 10.0 mi SSW 10.4 mph - N/A   Overcast
11:55 AM 74.1 °F - 65.7 °F 75% 30.08 in 10.0 mi SSW 6.9 mph - N/A   Mostly Cloudy
12:15 PM 76.6 °F - 66.0 °F 70% 30.07 in 10.0 mi South 5.8 mph - N/A   Scattered Clouds
12:35 PM 77.4 °F - 66.2 °F 68% 30.07 in 10.0 mi South 8.1 mph - N/A   Clear
12:55 PM 77.2 °F - 66.2 °F 69% 30.07 in 10.0 mi South 6.9 mph - N/A   Clear
1:15 PM 77.9 °F - 66.6 °F 68% 30.06 in 10.0 mi SSW 6.9 mph - N/A   Clear
1:35 PM 79.3 °F - 67.1 °F 66% 30.06 in 10.0 mi SW 6.9 mph - N/A   Clear
1:55 PM 79.9 °F - 66.9 °F 64% 30.05 in 10.0 mi SSW 6.9 mph - N/A   Scattered Clouds
2:15 PM 80.2 °F 82.5 °F 66.4 °F 63% 30.04 in 10.0 mi SSW 8.1 mph - N/A   Scattered Clouds
2:35 PM 82.2 °F 84.6 °F 66.4 °F 59% 30.04 in 10.0 mi South 5.8 mph - N/A   Scattered Clouds
2:55 PM 82.4 °F 84.6 °F 66.2 °F 58% 30.03 in 10.0 mi SSW 9.2 mph - N/A   Scattered Clouds
3:15 PM 81.9 °F 84.1 °F 66.0 °F 59% 30.03 in 10.0 mi South 6.9 mph - N/A   Scattered Clouds
3:35 PM 82.4 °F 84.4 °F 65.8 °F 57% 30.02 in 10.0 mi SSE 8.1 mph - N/A   Scattered Clouds
3:55 PM 81.3 °F 83.3 °F 65.7 °F 59% 30.02 in 10.0 mi South 8.1 mph - N/A   Scattered Clouds
4:15 PM 81.5 °F 83.7 °F 66.4 °F 60% 30.02 in 10.0 mi SSW 5.8 mph - N/A   Clear
4:35 PM 81.3 °F 83.3 °F 65.8 °F 59% 30.01 in 10.0 mi South 8.1 mph - N/A   Clear
4:55 PM 82.8 °F 84.9 °F 66.0 °F 57% 30.02 in 10.0 mi South 9.2 mph - N/A   Scattered Clouds
5:15 PM 80.4 °F 82.3 °F 65.3 °F 60% 30.02 in 10.0 mi SSW 9.2 mph - N/A   Scattered Clouds
5:35 PM 81.9 °F 83.7 °F 65.5 °F 57% 30.02 in 10.0 mi South 8.1 mph - N/A   Clear
5:55 PM 81.7 °F 83.6 °F 65.8 °F 58% 30.02 in 10.0 mi SSW 12.7 mph 17.3 mph N/A   Clear
6:15 PM 79.9 °F - 66.2 °F 63% 30.02 in 10.0 mi South 9.2 mph - N/A   Clear
6:35 PM 79.7 °F - 66.2 °F 63% 30.02 in 10.0 mi South 6.9 mph - N/A   Clear
6:55 PM 78.4 °F - 66.0 °F 66% 30.02 in 10.0 mi South 9.2 mph - N/A   Clear
7:15 PM 77.2 °F - 65.8 °F 68% 30.01 in 10.0 mi South 6.9 mph - N/A   Clear
7:35 PM 76.1 °F - 66.0 °F 71% 30.02 in 10.0 mi South 6.9 mph - N/A   Clear
7:55 PM 75.4 °F - 66.2 °F 73% 30.02 in 10.0 mi South 4.6 mph - N/A   Clear
8:15 PM 73.9 °F - 65.7 °F 75% 30.03 in 10.0 mi Calm Calm - N/A   Clear
8:35 PM 73.0 °F - 65.7 °F 78% 30.03 in 10.0 mi South 3.5 mph - N/A   Clear
8:55 PM 72.5 °F - 65.8 °F 80% 30.03 in 10.0 mi South 3.5 mph - N/A   Scattered Clouds
9:15 PM 73.4 °F - 66.2 °F 78% 30.04 in 10.0 mi SSE 3.5 mph - N/A   Mostly Cloudy
9:35 PM 72.5 °F - 66.2 °F 81% 30.04 in 10.0 mi Calm Calm - N/A   Overcast
9:55 PM 72.5 °F - 66.2 °F 81% 30.04 in 10.0 mi South 3.5 mph - N/A   Mostly Cloudy
10:15 PM 72.0 °F - 66.0 °F 81% 30.04 in 10.0 mi South 3.5 mph - N/A   Mostly Cloudy
10:35 PM 71.4 °F - 65.8 °F 82% 30.04 in 10.0 mi Calm Calm - N/A   Scattered Clouds
10:55 PM 71.6 °F - 66.0 °F 82% 30.05 in 10.0 mi South 4.6 mph - N/A   Scattered Clouds
11:15 PM 72.3 °F - 66.2 °F 81% 30.05 in 10.0 mi South 5.8 mph - N/A   Clear
11:35 PM 72.5 °F - 66.2 °F 81% 30.05 in 10.0 mi SSW 5.8 mph - N/A   Scattered Clouds
11:55 PM 72.7 °F - 66.4 °F 81% 30.05 in 10.0 mi South 6.9 mph - N/A   Scattered Clouds